RH
62 63 63 63 64 65 66 64 63 61 61 60 59 59 58 57 58 58 58 58 58 58 56 58 60 56 54 55 55 53 47 46 43 39 37 36 37 38 39 39 39 38 36 35 34 34 34 36 39 43 47 52
64 64 64 65 66 66 66 64 63 62 62 62 60 59 58 57 57 58 60 61 61 60 59 61 61 56 55 57 59 53 47 46 41 37 37 37 39 41 42 43 44 45 43 41 40 37 36 38 40 44 48 52
66 66 66 67 67 66 66 64 63 63 62 61 60 59 57 57 57 60 62 62 62 62 63 65 63 57 54 59 61 54 48 45 39 37 38 40 43 45 45 44 45 46 48 47 45 43 42 42 44 47 52 56
67 67 68 69 69 67 65 64 63 62 62 61 60 58 57 55 57 60 61 61 62 64 68 69 66 60 55 59 59 53 49 44 38 38 40 44 46 46 42 38 37 39 43 44 44 44 44 45 47 49 53 57
68 69 70 70 69 66 65 64 62 61 61 60 60 58 56 54 55 57 59 61 63 67 72 71 68 62 57 59 56 52 50 42 38 41 45 46 45 42 37 33 31 31 34 38 40 41 43 45 46 48 51 56
71 70 71 70 68 65 63 62 62 62 61 60 58 57 55 55 56 57 60 63 65 69 73 73 70 64 61 60 56 53 47 39 42 46 47 46 43 39 34 31 30 30 32 35 37 39 41 43 45 46 49 53
73 72 70 69 66 64 63 62 62 62 61 58 56 58 58 59 60 60 64 65 65 66 70 74 73 68 66 62 58 52 42 41 47 48 47 46 43 38 33 32 31 31 33 34 36 38 39 41 42 43 45 48
74 73 70 68 66 66 64 63 63 61 58 55 56 61 64 65 65 66 68 67 64 63 67 74 74 70 68 64 56 46 41 46 51 49 49 48 44 38 34 34 33 33 33 33 34 34 35 35 35 36 38 40
75 74 71 69 69 68 67 64 63 61 56 53 58 65 67 68 69 70 71 66 62 63 68 72 70 69 68 61 50 43 45 52 52 50 49 48 46 40 35 35 34 34 33 32 32 31 31 31 31 31 32 33
79 82 81 77 73 71 71 68 65 62 56 55 62 68 69 71 74 75 71 65 63 66 69 68 66 67 64 53 44 46 52 54 52 49 47 46 43 37 34 34 33 31 31 31 32 32 33 33 33 33 33 33
87 92 93 90 85 79 77 73 69 64 60 64 70 70 68 72 78 79 74 67 66 69 69 68 67 63 53 45 48 53 55 53 51 48 46 44 38 33 33 32 31 30 31 33 35 36 37 38 38 38 37 36
89 94 96 98 96 90 87 82 75 69 68 78 80 72 69 71 75 76 72 68 67 69 70 69 63 54 46 48 55 57 55 53 50 47 44 39 34 33 32 30 31 33 35 37 38 39 39 40 41 42 41 41
89 94 96 99 100 96 97 90 82 77 77 85 84 76 73 71 70 70 67 66 68 69 67 63 54 47 50 56 58 57 55 51 47 43 38 35 33 31 31 31 33 35 37 39 40 41 41 42 43 43 43 42
94 98 99 99 101 99 101 95 86 78 77 84 83 77 74 70 68 67 64 66 69 67 61 54 49 50 56 59 59 57 54 48 44 41 36 34 33 31 32 34 36 38 39 41 42 43 43 44 44 44 43 43
98 100 100 100 101 99 98 96 91 82 78 84 86 79 75 71 67 64 63 66 68 63 57 52 50 55 59 60 60 58 54 50 47 44 39 35 34 34 35 37 39 41 42 43 44 44 45 45 45 45 44 44
99 98 100 100 99 96 96 99 95 90 88 91 92 87 83 81 76 70 66 66 67 64 59 55 56 59 60 61 61 58 54 53 52 46 40 38 37 37 39 40 42 43 44 45 45 46 46 46 46 46 46 46
100 99 100 100 100 98 100 101 93 91 96 95 93 90 89 90 88 83 77 75 74 71 68 65 63 62 63 62 61 58 54 53 53 47 41 40 39 40 41 43 43 44 45 45 46 46 46 46 46 47 48 47
100 99 98 96 98 100 98 97 95 95 100 97 91 92 95 95 91 88 87 87 85 81 79 76 71 67 64 62 62 60 54 52 52 47 43 42 42 42 43 44 45 45 45 46 46 46 47 47 47 49 49 48
99 98 97 93 94 98 97 98 100 100 101 99 94 94 99 99 94 89 87 87 86 84 83 81 78 75 69 63 62 60 55 52 52 48 46 45 45 45 45 46 46 46 46 46 47 47 48 48 49 49 48 48
100 100 99 98 96 97 98 99 100 100 100 97 94 95 98 100 100 96 91 87 83 82 83 82 80 82 81 72 63 58 55 53 52 50 49 48 47 47 47 47 47 46 46 46 47 48 48 48 48 48 47 48
99 100 100 100 99 98 100 102 101 101 100 94 92 97 100 100 100 100 99 95 91 88 89 89 88 91 93 84 69 60 56 54 53 51 50 49 48 48 47 47 46 46 46 47 47 48 47 47 47 47 48 48
96 99 99 98 98 98 99 100 97 94 95 95 96 100 101 100 100 100 100 100 99 98 97 98 97 98 99 94 82 73 66 60 55 53 52 50 50 49 49 48 48 48 47 47 47 47 46 47 47 47 48 48
93 95 96 97 98 99 98 95 92 90 93 100 101 98 96 97 100 100 100 101 99 97 98 100 100 100 100 99 94 89 86 80 69 62 59 57 56 55 55 54 53 51 49 49 49 48 48 48 48 49 50 50
96 97 95 97 98 100 99 96 95 97 100 103 99 92 89 91 96 99 101 101 97 94 96 99 100 100 100 100 99 95 97 97 89 80 72 66 62 60 59 58 56 55 54 53 52 51 51 51 52 52 53 52
96 97 95 98 98 98 99 98 98 100 100 102 98 93 93 96 99 100 102 99 96 97 98 98 100 100 100 100 99 95 95 99 98 93 86 78 71 67 64 63 62 63 63 63 63 63 63 64 64 63 63 63
95 92 90 95 98 99 99 98 98 97 97 99 100 98 97 97 99 101 102 97 92 98 101 99 100 100 100 100 98 97 96 97 98 97 93 88 85 82 78 73 70 71 72 73 74 74 75 75 74 73 72 72
98 95 91 92 96 99 99 97 97 97 98 100 101 101 98 99 100 101 102 98 93 98 101 100 101 100 100 100 99 100 99 99 100 99 96 93 92 94 94 89 83 80 78 78 78 78 79 78 78 77 76 76
99 99 97 96 97 99 98 98 98 97 98 98 96 96 95 98 100 98 99 99 97 99 100 100 100 100 100 100 100 100 100 100 100 100 100 98 97 98 100 98 94 90 89 87 85 84 83 82 82 81 81 83
100 100 100 99 100 100 97 97 99 98 97 95 93 92 91 91 92 94 97 100 99 100 100 100 100 100 100 101 100 100 100 100 100 100 100 100 98 97 98 99 98 97 95 93 90 88 86 85 85 86 87 89
100 100 100 100 101 99 97 97 99 100 97 93 93 97 97 95 96 97 99 101 100 100 100 100 100 100 99 100 100 100 100 100 100 100 100 100 98 96 97 99 99 97 95 94 93 92 92 91 90 91 93 92
100 100 100 100 101 100 99 99 100 99 97 93 94 98 99 99 98 95 96 99 100 100 100 100 100 100 100 100 100 99 100 100 100 100 100 101 100 98 99 100 99 96 94 94 95 95 96 96 96 96 96 95
Wind_Speed
32 32 32 31 30 29 29 29 28 28 28 28 28 29 28 29 31 31 32 32 31 29 27 26 25 26 26 25 24 21 20 19 18 17 16 15 14 14 14 14 14 15 15 16 16 17 17 18 18 18 17 17
33 33 33 32 31 30 30 30 29 30 30 30 31 31 32 32 33 33 34 33 31 30 28 27 27 27 27 26 25 23 21 20 20 19 17 15 14 14 15 15 16 16 16 16 16 17 17 18 18 18 18 18
34 34 33 33 33 32 31 31 31 32 32 33 33 34 34 34 33 34 33 33 31 30 29 28 28 28 28 27 26 24 22 21 20 19 17 16 15 15 15 16 17 17 17 16 16 17 17 17 17 17 18 18
35 34 34 33 33 33 33 33 33 34 34 35 35 35 35 34 33 33 33 32 31 29 30 30 29 29 28 28 27 24 23 22 20 19 17 16 16 16 16 16 17 17 16 16 16 16 16 16 16 16 17 17
35 35 35 35 35 34 35 35 35 35 35 35 36 37 35 34 33 32 32 32 30 29 31 31 31 30 29 28 27 25 24 22 20 19 18 17 16 16 16 16 16 15 15 15 15 15 15 15 15 16 16 17
36 36 36 36 36 37 37 36 36 36 35 36 37 37 35 34 33 32 32 32 29 30 32 32 31 31 30 29 27 26 24 22 20 19 18 18 17 17 16 16 15 15 15 15 15 14 14 15 15 15 16 16
37 38 38 38 38 39 39 39 38 37 35 36 36 36 35 34 32 32 32 31 30 31 32 32 31 30 29 29 27 26 24 22 21 19 19 19 18 18 17 16 15 15 15 15 14 14 14 15 15 15 16 16
38 38 39 39 40 40 40 40 39 37 35 35 34 33 33 32 31 31 32 31 30 30 30 30 30 30 29 28 27 26 24 22 21 20 20 20 19 18 18 17 16 15 15 15 14 14 14 15 15 16 16 16
38 39 40 40 40 40 40 40 38 36 34 33 32 30 29 29 29 31 31 31 30 29 28 29 29 29 29 28 26 25 24 23 22 21 20 21 21 20 20 18 17 16 16 15 14 14 15 15 16 16 17 17
39 39 41 41 42 41 39 38 37 35 33 32 30 28 27 27 28 30 31 30 29 28 28 29 29 29 28 27 26 25 24 23 22 21 21 21 22 22 21 19 18 17 16 15 15 15 15 16 16 17 17 18
38 37 37 38 40 40 39 37 36 34 32 30 29 28 27 27 28 30 30 29 27 27 29 29 28 28 28 27 26 25 24 23 23 22 22 23 23 22 20 19 18 17 16 16 15 16 16 17 17 18 18 19
36 36 35 36 36 36 37 36 34 33 31 29 28 28 28 27 28 29 30 29 27 27 28 28 28 28 28 27 26 25 24 23 23 22 23 24 24 22 20 20 19 18 17 17 16 16 17 17 18 19 19 20
36 36 36 37 37 36 37 37 34 32 31 29 28 28 28 28 28 29 29 28 27 27 28 29 29 29 28 27 27 25 25 23 23 23 24 25 24 22 20 20 20 20 19 18 17 17 18 18 19 20 21 22
37 37 37 38 39 38 38 39 35 34 33 28 27 28 28 28 28 28 28 27 27 28 29 30 30 30 29 28 27 26 25 24 24 24 25 24 23 22 22 21 21 21 20 19 18 18 19 19 20 21 22 23
38 38 37 37 39 39 40 42 39 37 34 29 26 27 27 28 29 29 28 27 28 29 30 31 31 31 30 29 28 27 26 26 27 27 26 26 25 25 24 23 23 22 21 20 19 19 20 20 21 22 23 23
38 39 39 38 38 41 45 44 40 37 36 33 28 26 27 28 29 29 29 29 29 30 31 32 33 32 32 30 29 28 28 28 29 28 28 27 27 26 25 24 24 23 22 21 20 20 21 22 22 23 24 24
40 41 41 39 38 42 46 44 41 42 41 37 31 29 29 29 30 31 31 31 31 31 32 32 33 33 32 31 29 29 29 29 29 30 29 28 28 27 26 25 25 24 23 23 22 21 22 23 24 24 25 26
39 41 44 43 42 42 45 47 47 46 43 36 31 31 31 29 30 32 33 32 31 31 32 32 32 32 32 32 30 30 30 30 31 31 30 29 29 29 28 27 26 26 25 24 23 23 24 25 26 27 28 28
32 36 44 48 48 44 44 47 46 42 38 33 31 31 33 32 30 31 34 33 32 32 32 32 31 31 31 31 31 32 32 32 32 33 32 31 31 31 29 28 27 27 26 25 24 24 25 27 28 29 29 29
33 29 35 42 46 47 47 46 41 36 36 34 31 33 35 35 33 32 32 32 31 32 33 32 31 30 29 30 31 32 32 33 33 33 33 32 32 31 29 29 28 28 27 27 26 26 28 29 30 30 29 29
37 29 28 31 35 40 44 45 41 39 41 37 34 36 35 34 35 35 34 32 31 32 33 32 31 30 28 27 28 30 31 30 31 31 31 31 30 30 30 29 29 29 29 29 28 28 29 29 29 29 29 29
36 31 28 29 30 32 35 39 38 38 41 39 38 37 33 33 36 37 37 34 30 30 32 33 33 33 30 27 25 25 26 28 28 28 28 29 29 29 29 29 30 30 30 30 29 28 28 29 29 29 29 30
36 33 29 29 29 29 32 33 31 39 45 40 35 34 31 33 37 40 41 33 27 27 31 35 36 36 35 31 28 25 24 25 27 28 27 27 27 28 28 29 30 30 30 30 29 28 28 28 29 29 30 31
37 35 29 28 28 27 29 28 29 42 50 39 30 31 33 37 40 43 43 32 28 30 31 37 38 35 35 32 29 28 27 26 27 28 28 27 27 27 28 28 29 29 28 29 29 28 28 28 29 30 31 32
35 34 29 27 28 28 27 27 27 34 42 37 31 30 36 44 47 46 41 31 32 36 36 38 39 34 32 30 28 29 30 30 29 29 30 29 28 28 28 28 28 28 28 28 28 28 28 29 31 32 33 34
33 33 31 28 27 26 26 27 26 28 37 38 31 28 33 43 48 45 38 32 34 40 42 42 41 35 32 31 30 31 32 33 33 33 33 32 31 30 29 29 29 28 28 29 29 29 30 31 32 34 35 35
35 34 33 31 28 25 24 25 25 26 34 37 32 30 29 36 44 44 38 37 38 44 47 44 42 37 33 32 32 32 32 33 34 34 35 35 36 35 32 30 28 28 28 29 30 30 32 33 34 35 36 36
35 34 33 33 31 29 27 26 26 26 28 30 29 29 26 30 38 39 40 41 42 47 47 42 41 38 34 34 33 34 34 35 36 35 34 34 35 35 32 29 28 28 28 29 30 31 32 33 34 36 36 36
34 35 34 34 34 33 31 29 29 29 29 28 28 30 30 29 32 34 39 42 42 44 45 43 42 40 39 38 36 36 38 39 39 36 33 30 30 30 28 27 28 28 29 30 31 32 33 33 35 35 36 37
35 35 35 35 36 35 34 33 33 32 31 30 30 33 33 31 32 34 38 42 41 42 45 47 47 45 45 44 41 41 41 41 39 37 34 31 28 27 26 26 27 29 29 30 31 32 33 33 34 35 35 37
38 37 36 37 38 37 37 36 36 34 33 31 31 33 34 34 35 35 37 40 41 43 47 50 51 49 47 46 44 44 43 41 38 37 35 32 29 27 27 28 29 30 31 32 32 33 33 34 35 35 36 37
Wind_Direction
245 247 247 245 245 246 248 251 254 254 254 254 255 258 261 266 269 269 268 268 267 267 263 255 251 251 253 253 250 247 243 244 246 246 248 250 254 259 263 265 266 267 268 270 272 272 271 270 269 267 265 262
244 245 245 243 244 245 248 251 252 254 254 255 258 262 266 268 269 268 266 265 265 263 257 250 248 249 250 250 249 245 241 241 243 244 247 250 254 258 264 267 268 267 267 268 271 272 271 271 269 268 267 265
243 243 243 242 244 246 248 250 252 254 255 258 262 266 268 268 267 266 264 262 262 258 250 246 245 247 247 247 246 244 240 240 240 243 246 250 255 261 265 269 270 269 267 267 268 269 270 271 271 271 270 268
242 242 241 242 244 246 248 250 252 255 258 261 264 267 267 267 265 263 262 261 258 251 244 242 243 245 245 245 244 242 240 240 240 242 247 252 258 263 267 269 270 270 268 267 267 269 270 271 273 273 273 271
241 241 240 241 244 247 249 250 254 256 260 263 265 266 265 264 263 262 261 258 253 245 240 240 241 243 244 242 241 240 241 240 240 242 247 252 258 263 265 266 267 268 269 269 269 270 271 272 274 275 275 274
240 241 240 242 245 247 249 251 254 257 260 263 264 264 263 261 261 261 259 257 250 240 238 239 241 243 242 240 238 239 239 238 239 242 247 253 257 260 261 261 261 264 267 268 270 270 272 273 274 276 276 276
240 241 242 244 246 248 250 252 254 257 259 261 261 260 259 258 257 258 256 255 247 238 236 239 242 243 241 237 236 237 236 237 240 243 249 254 255 256 257 257 256 260 265 266 268 270 273 275 277 277 277 277
240 241 243 244 245 247 250 254 256 257 258 258 257 256 255 253 253 253 253 252 246 238 237 241 243 241 238 236 235 234 235 237 242 245 250 254 255 255 256 255 254 257 262 265 268 271 275 278 280 280 280 280
241 242 243 244 245 246 249 253 256 256 256 256 255 253 251 250 249 250 250 248 245 241 240 242 241 238 236 236 235 234 236 239 243 246 249 254 257 257 256 255 255 256 259 263 267 271 275 278 280 282 283 283
240 241 242 243 246 247 248 250 253 254 254 254 254 252 250 249 249 249 248 246 243 242 242 241 238 235 235 235 235 236 239 243 246 248 251 255 255 253 253 254 255 255 257 262 266 271 275 278 280 282 283 283
238 238 239 242 245 248 250 249 249 251 252 254 255 253 252 251 249 248 248 246 243 241 240 239 236 234 235 235 236 240 243 246 248 249 251 252 249 247 249 252 254 255 258 262 267 270 274 278 280 281 282 281
241 238 238 240 243 249 251 250 246 247 249 250 252 252 252 252 249 247 247 246 243 240 238 235 235 234 234 236 239 243 245 247 249 250 250 248 244 242 245 249 252 256 260 263 266 270 274 277 279 279 280 280
242 240 240 241 243 246 248 248 247 249 249 246 246 248 249 250 249 247 246 245 242 238 235 234 234 234 235 238 241 244 246 248 248 248 247 244 241 241 243 245 250 255 258 260 263 267 270 272 275 276 277 278
241 242 243 244 243 242 243 246 249 253 252 247 244 245 246 247 246 245 244 241 239 236 235 235 234 235 237 240 242 245 246 246 247 247 244 241 242 243 244 245 248 251 253 256 260 265 268 271 274 276 277 279
240 240 241 242 242 243 243 244 249 251 252 252 247 244 246 246 244 243 242 239 238 238 238 237 237 239 241 243 244 245 244 245 246 245 242 240 240 241 242 244 246 247 251 255 260 264 268 271 274 277 279 281
242 240 240 241 243 245 240 241 247 248 249 251 248 250 253 249 245 243 241 241 240 240 241 241 241 243 244 245 247 247 245 244 243 241 239 238 239 240 240 244 247 248 251 254 257 262 266 270 273 277 279 280
245 242 240 240 243 243 239 241 248 247 244 244 248 258 260 252 248 245 242 240 240 241 243 244 245 246 247 247 247 248 247 244 242 240 237 237 239 241 243 245 248 250 251 252 254 259 264 268 271 275 278 278
247 248 245 243 240 240 243 244 244 240 236 240 251 261 262 256 250 246 244 243 241 241 243 246 248 250 250 249 248 246 245 243 241 239 236 236 239 241 243 244 246 248 249 251 253 258 263 266 270 273 274 275
247 252 249 247 243 242 244 240 233 230 235 245 254 260 262 262 256 248 247 247 244 243 245 246 248 252 253 251 249 245 241 239 238 237 235 235 236 238 241 242 244 246 247 250 253 258 262 265 268 269 270 272
243 246 243 241 239 240 240 235 231 238 249 254 255 257 260 263 263 256 251 250 247 244 247 249 248 249 253 253 250 245 240 237 235 234 233 232 234 236 239 241 243 245 247 250 254 256 259 263 265 266 267 270
244 245 241 234 233 235 233 232 236 247 254 254 254 254 256 261 264 263 262 259 252 247 250 254 251 246 248 250 248 245 241 237 234 232 231 231 233 236 238 241 243 245 247 249 251 254 257 261 263 264 267 270
249 250 248 243 239 237 238 238 243 255 257 253 254 254 256 261 261 263 263 258 255 254 256 257 255 249 245 242 239 241 242 240 237 235 234 234 235 238 240 243 246 247 248 250 251 254 257 260 262 265 268 270
254 253 254 252 247 247 251 249 257 264 251 243 250 254 259 260 259 260 253 246 254 261 261 256 252 251 248 242 234 232 237 240 240 239 239 240 240 243 245 247 248 249 251 253 254 256 258 260 263 266 268 270
254 249 251 252 250 252 251 251 265 260 238 235 258 263 264 259 253 251 242 243 265 267 261 252 246 249 250 248 242 239 241 243 243 242 242 243 244 245 246 246 248 250 252 255 256 258 260 262 264 266 268 269
251 248 250 251 249 249 249 249 258 254 237 244 270 272 268 260 247 238 235 253 277 271 264 254 245 248 253 258 262 260 258 255 249 245 243 243 242 244 246 247 248 250 253 255 257 259 261 263 265 267 269 270
248 250 253 254 252 249 251 249 247 255 251 252 266 269 269 264 247 234 240 266 280 269 263 253 243 246 256 263 267 267 267 265 260 254 249 246 245 246 248 249 250 252 255 257 260 262 264 266 269 270 270 271
250 250 250 251 254 255 257 255 251 261 258 251 260 264 265 267 251 239 251 272 278 265 255 247 240 245 254 255 256 260 265 266 261 256 253 252 250 248 248 248 250 253 256 260 262 265 267 269 270 270 271 272
252 249 247 248 254 259 261 262 260 264 262 256 263 265 266 271 260 254 262 270 272 260 245 241 245 250 252 250 252 256 262 263 256 251 252 252 252 251 252 253 254 257 260 262 265 267 269 270 271 271 273 275
254 249 249 253 258 262 261 263 265 267 269 268 270 270 269 272 270 271 268 265 267 258 246 246 253 256 254 252 255 257 258 258 252 248 249 251 256 260 262 263 264 267 268 269 269 269 271 272 273 275 276 276
256 254 255 259 262 265 264 265 268 269 270 269 269 270 270 271 274 276 269 262 262 259 254 252 253 256 254 252 255 256 253 252 248 246 247 252 260 265 266 266 270 274 276 277 276 275 274 274 275 276 276 276
255 256 257 259 262 265 266 266 268 269 269 266 263 264 266 267 269 272 270 267 266 265 262 257 252 252 252 251 253 254 251 249 247 245 248 255 261 263 263 267 274 279 281 281 280 279 279 278 277 276 276 276